Time,TemperatureF,DewpointF,PressureIn,WindDirection,WindDirectionDegrees,WindSpeedMPH,WindSpeedGustMPH,Humidity,HourlyPrecipIn,Conditions,Clouds,dailyrainin,SoftwareType,DateUTC
2013-06-18 00:01:00,67.3,65.8,29.91,ENE,59,0.0,0.0,95,0.00,,,0.00,WeatherCatV1.11B39,2013-06-18 04:01:00,
2013-06-18 00:06:00,67.3,66.1,29.91,ESE,102,0.0,0.0,96,0.00,,,0.00,WeatherCatV1.11B39,2013-06-18 04:06:00,
2013-06-18 00:11:00,67.3,66.1,29.91,East,101,0.0,0.0,96,0.00,,,0.00,WeatherCatV1.11B39,2013-06-18 04:11:00,
2013-06-18 00:16:00,67.3,66.1,29.91,East,101,0.0,0.0,96,0.00,,,0.00,WeatherCatV1.11B39,2013-06-18 04:16:00,
2013-06-18 00:21:00,67.3,66.1,29.91,East,98,0.0,0.0,96,0.00,,,0.00,WeatherCatV1.11B39,2013-06-18 04:21:00,
2013-06-18 00:26:00,67.2,66.0,29.91,East,98,0.0,0.0,96,0.00,,,0.00,WeatherCatV1.11B39,2013-06-18 04:26:00,
2013-06-18 00:31:00,67.3,66.1,29.91,East,98,0.0,0.0,96,0.00,,,0.00,WeatherCatV1.11B39,2013-06-18 04:31:00,
2013-06-18 00:36:00,67.3,66.1,29.91,East,98,0.0,0.0,96,0.00,,,0.00,WeatherCatV1.11B39,2013-06-18 04:36:00,
2013-06-18 00:41:00,67.3,66.1,29.90,East,97,0.0,0.0,96,0.00,,,0.00,WeatherCatV1.11B39,2013-06-18 04:41:00,
2013-06-18 00:46:00,67.3,66.1,29.90,East,89,0.0,0.0,96,0.00,,,0.00,WeatherCatV1.11B39,2013-06-18 04:46:00,
2013-06-18 00:51:00,67.2,66.0,29.90,East,89,0.0,0.0,96,0.00,,,0.00,WeatherCatV1.11B39,2013-06-18 04:51:00,
2013-06-18 00:56:00,67.2,66.0,29.90,ENE,57,0.0,0.0,96,0.00,,,0.00,WeatherCatV1.11B39,2013-06-18 04:56:00,
2013-06-18 01:01:00,67.3,66.1,29.89,ENE,57,0.0,0.0,96,0.00,,,0.00,WeatherCatV1.11B39,2013-06-18 05:01:00,
2013-06-18 01:06:00,67.3,66.1,29.90,ENE,57,0.0,0.0,96,0.00,,,0.00,WeatherCatV1.11B39,2013-06-18 05:06:00,
2013-06-18 01:11:00,67.3,66.1,29.89,East,98,1.0,2.0,96,0.00,,,0.00,WeatherCatV1.11B39,2013-06-18 05:11:00,
2013-06-18 01:16:00,67.5,66.0,29.89,ESE,112,0.0,0.0,95,0.00,,,0.00,WeatherCatV1.11B39,2013-06-18 05:16:00,
2013-06-18 01:21:00,67.6,66.1,29.89,ESE,112,0.0,0.0,95,0.00,,,0.00,WeatherCatV1.11B39,2013-06-18 05:21:00,
2013-06-18 01:26:00,67.7,65.9,29.88,East,94,0.0,0.0,94,0.00,,,0.00,WeatherCatV1.11B39,2013-06-18 05:26:00,
2013-06-18 01:31:00,67.7,65.9,29.88,East,94,0.0,0.0,94,0.00,,,0.00,WeatherCatV1.11B39,2013-06-18 05:31:00,
2013-06-18 01:36:00,67.7,65.9,29.88,East,94,0.0,0.0,94,0.00,,,0.00,WeatherCatV1.11B39,2013-06-18 05:36:00,
2013-06-18 01:41:00,67.7,66.2,29.88,East,94,0.0,0.0,95,0.00,,,0.00,WeatherCatV1.11B39,2013-06-18 05:41:00,
2013-06-18 01:46:00,67.6,65.8,29.87,ENE,64,0.0,2.0,94,0.00,,,0.00,WeatherCatV1.11B39,2013-06-18 05:46:00,
2013-06-18 01:51:00,67.7,65.9,29.87,ENE,64,0.0,0.0,94,0.00,,,0.00,WeatherCatV1.11B39,2013-06-18 05:51:00,
2013-06-18 01:56:00,67.6,66.1,29.87,ENE,64,0.0,0.0,95,0.00,,,0.00,WeatherCatV1.11B39,2013-06-18 05:56:00,
2013-06-18 02:00:00,67.5,66.0,29.87,ENE,64,0.0,0.0,95,0.00,,,0.00,WeatherCatV1.11B39,2013-06-18 06:00:00,
2013-06-18 02:05:00,67.4,65.9,29.87,ENE,65,0.0,0.0,95,0.00,,,0.00,WeatherCatV1.11B39,2013-06-18 06:05:00,
2013-06-18 02:10:00,67.3,65.8,29.87,ENE,65,0.0,0.0,95,0.00,,,0.00,WeatherCatV1.11B39,2013-06-18 06:10:00,
2013-06-18 02:15:00,67.2,65.7,29.87,ENE,65,0.0,0.0,95,0.00,,,0.00,WeatherCatV1.11B39,2013-06-18 06:15:00,
2013-06-18 02:20:00,67.2,65.7,29.86,ENE,65,0.0,0.0,95,0.00,,,0.00,WeatherCatV1.11B39,2013-06-18 06:20:00,
2013-06-18 02:25:00,67.1,65.6,29.86,ENE,65,0.0,0.0,95,0.00,,,0.00,WeatherCatV1.11B39,2013-06-18 06:25:00,
2013-06-18 02:30:00,67.1,65.6,29.85,ENE,65,0.0,0.0,95,0.00,,,0.00,WeatherCatV1.11B39,2013-06-18 06:30:00,
2013-06-18 02:35:00,67.1,65.6,29.85,ENE,65,0.0,0.0,95,0.00,,,0.00,WeatherCatV1.11B39,2013-06-18 06:35:00,
2013-06-18 02:40:00,66.9,65.4,29.86,ENE,65,0.0,0.0,95,0.00,,,0.00,WeatherCatV1.11B39,2013-06-18 06:40:00,
2013-06-18 02:45:00,66.9,65.7,29.85,ENE,65,0.0,0.0,96,0.00,,,0.00,WeatherCatV1.11B39,2013-06-18 06:45:00,
2013-06-18 02:50:00,66.8,65.6,29.85,ENE,59,2.0,3.0,96,0.00,,,0.01,WeatherCatV1.11B39,2013-06-18 06:50:00,
2013-06-18 02:55:00,66.8,65.3,29.85,ENE,57,1.0,3.0,95,0.00,,,0.01,WeatherCatV1.11B39,2013-06-18 06:55:00,
2013-06-18 03:00:00,66.8,65.3,29.84,East,82,0.0,1.0,95,0.00,,,0.01,WeatherCatV1.11B39,2013-06-18 07:00:00,
2013-06-18 03:05:00,66.7,65.2,29.84,East,79,0.0,1.0,95,0.00,,,0.01,WeatherCatV1.11B39,2013-06-18 07:05:00,
2013-06-18 03:10:00,66.8,65.3,29.84,East,79,0.0,0.0,95,0.00,,,0.01,WeatherCatV1.11B39,2013-06-18 07:10:00,
2013-06-18 03:15:00,66.8,65.3,29.84,SSW,201,2.0,3.0,95,0.00,,,0.01,WeatherCatV1.11B39,2013-06-18 07:15:00,
2013-06-18 03:20:00,66.8,65.3,29.84,East,84,0.0,4.0,95,0.00,,,0.01,WeatherCatV1.11B39,2013-06-18 07:20:00,
2013-06-18 03:25:00,66.9,65.4,29.84,NE,56,0.0,5.0,95,0.00,,,0.01,WeatherCatV1.11B39,2013-06-18 07:25:00,
2013-06-18 03:30:00,67.0,65.2,29.84,East,87,0.0,0.0,94,0.00,,,0.01,WeatherCatV1.11B39,2013-06-18 07:30:00,
2013-06-18 03:35:00,67.1,65.3,29.84,SE,141,0.0,0.0,94,0.00,,,0.01,WeatherCatV1.11B39,2013-06-18 07:35:00,
2013-06-18 03:40:00,67.2,65.4,29.84,ENE,65,0.0,0.0,94,0.00,,,0.01,WeatherCatV1.11B39,2013-06-18 07:40:00,
2013-06-18 03:45:00,67.1,65.3,29.84,ENE,70,0.0,1.0,94,0.00,,,0.01,WeatherCatV1.11B39,2013-06-18 07:45:00,
2013-06-18 03:50:00,67.2,65.4,29.83,ENE,72,0.0,0.0,94,0.00,,,0.01,WeatherCatV1.11B39,2013-06-18 07:50:00,
2013-06-18 03:55:00,67.2,65.4,29.83,ENE,77,0.0,0.0,94,0.00,,,0.01,WeatherCatV1.11B39,2013-06-18 07:55:00,
2013-06-18 04:00:00,67.1,65.0,29.83,East,98,0.0,1.0,93,0.00,,,0.01,WeatherCatV1.11B39,2013-06-18 08:00:00,
2013-06-18 04:05:00,67.1,65.0,29.83,East,86,0.0,0.0,93,0.00,,,0.01,WeatherCatV1.11B39,2013-06-18 08:05:00,
2013-06-18 04:10:00,67.2,65.4,29.83,East,89,0.0,0.0,94,0.00,,,0.01,WeatherCatV1.11B39,2013-06-18 08:10:00,
2013-06-18 04:15:00,67.1,65.3,29.83,East,89,0.0,0.0,94,0.00,,,0.01,WeatherCatV1.11B39,2013-06-18 08:15:00,
2013-06-18 04:20:00,67.0,65.2,29.83,East,89,0.0,0.0,94,0.00,,,0.01,WeatherCatV1.11B39,2013-06-18 08:20:00,
2013-06-18 04:25:00,66.9,65.1,29.83,East,89,0.0,0.0,94,0.00,,,0.01,WeatherCatV1.11B39,2013-06-18 08:25:00,
2013-06-18 04:30:00,66.7,64.9,29.83,East,89,0.0,0.0,94,0.00,,,0.01,WeatherCatV1.11B39,2013-06-18 08:30:00,
2013-06-18 04:35:00,66.6,64.8,29.82,East,89,0.0,0.0,94,0.00,,,0.01,WeatherCatV1.11B39,2013-06-18 08:35:00,
2013-06-18 04:40:00,66.5,65.0,29.83,East,89,0.0,0.0,95,0.00,,,0.01,WeatherCatV1.11B39,2013-06-18 08:40:00,
2013-06-18 04:45:00,66.4,64.9,29.83,ESE,117,0.0,1.0,95,0.00,,,0.01,WeatherCatV1.11B39,2013-06-18 08:45:00,
2013-06-18 04:50:00,66.4,64.9,29.83,ENE,58,0.0,0.0,95,0.00,,,0.01,WeatherCatV1.11B39,2013-06-18 08:50:00,
2013-06-18 04:55:00,66.4,64.9,29.82,ESE,102,0.0,0.0,95,0.00,,,0.01,WeatherCatV1.11B39,2013-06-18 08:55:00,
2013-06-18 05:00:00,66.4,64.9,29.83,ESE,102,0.0,0.0,95,0.00,,,0.01,WeatherCatV1.11B39,2013-06-18 09:00:00,
2013-06-18 05:05:00,66.4,64.9,29.83,ESE,102,0.0,0.0,95,0.00,,,0.01,WeatherCatV1.11B39,2013-06-18 09:05:00,
2013-06-18 05:10:00,66.3,64.8,29.83,ESE,102,0.0,0.0,95,0.00,,,0.01,WeatherCatV1.11B39,2013-06-18 09:10:00,
2013-06-18 05:15:00,66.3,65.1,29.83,ESE,102,0.0,0.0,96,0.00,,,0.01,WeatherCatV1.11B39,2013-06-18 09:15:00,
2013-06-18 05:20:00,66.3,64.8,29.83,ESE,102,0.0,0.0,95,0.00,,,0.01,WeatherCatV1.11B39,2013-06-18 09:20:00,
2013-06-18 05:25:00,66.3,64.8,29.83,ESE,102,0.0,0.0,95,0.00,,,0.01,WeatherCatV1.11B39,2013-06-18 09:25:00,
2013-06-18 05:30:00,66.3,65.1,29.84,ENE,72,0.0,2.0,96,0.00,,,0.01,WeatherCatV1.11B39,2013-06-18 09:30:00,
2013-06-18 05:35:00,66.4,64.9,29.84,ENE,72,0.0,0.0,95,0.00,,,0.01,WeatherCatV1.11B39,2013-06-18 09:35:00,
2013-06-18 05:40:00,66.5,65.0,29.84,East,82,0.0,1.0,95,0.00,,,0.01,WeatherCatV1.11B39,2013-06-18 09:40:00,
2013-06-18 05:45:00,66.6,65.1,29.84,ESE,102,0.0,0.0,95,0.00,,,0.01,WeatherCatV1.11B39,2013-06-18 09:45:00,
2013-06-18 05:50:00,66.7,65.2,29.84,ESE,102,0.0,0.0,95,0.00,,,0.01,WeatherCatV1.11B39,2013-06-18 09:50:00,
2013-06-18 05:55:00,66.7,64.9,29.85,ESE,102,0.0,0.0,94,0.00,,,0.01,WeatherCatV1.11B39,2013-06-18 09:55:00,
2013-06-18 06:00:00,66.7,65.2,29.85,ESE,102,0.0,0.0,95,0.00,,,0.01,WeatherCatV1.11B39,2013-06-18 10:00:00,
2013-06-18 06:05:00,66.6,65.1,29.85,ESE,102,0.0,0.0,95,0.00,,,0.01,WeatherCatV1.11B39,2013-06-18 10:05:00,
2013-06-18 06:10:00,66.7,65.2,29.85,ESE,102,0.0,0.0,95,0.00,,,0.01,WeatherCatV1.11B39,2013-06-18 10:10:00,
2013-06-18 06:15:00,66.6,65.1,29.85,ESE,102,0.0,0.0,95,0.00,,,0.01,WeatherCatV1.11B39,2013-06-18 10:15:00,
2013-06-18 06:20:00,66.6,65.1,29.85,ESE,102,0.0,0.0,95,0.00,,,0.01,WeatherCatV1.11B39,2013-06-18 10:20:00,
2013-06-18 06:25:00,66.5,65.0,29.85,ESE,102,0.0,0.0,95,0.00,,,0.01,WeatherCatV1.11B39,2013-06-18 10:25:00,
2013-06-18 06:30:00,66.5,65.0,29.85,ESE,102,0.0,0.0,95,0.00,,,0.01,WeatherCatV1.11B39,2013-06-18 10:30:00,
2013-06-18 06:35:00,66.4,64.9,29.85,ESE,102,0.0,0.0,95,0.00,,,0.01,WeatherCatV1.11B39,2013-06-18 10:35:00,
2013-06-18 06:40:00,66.4,64.9,29.85,ESE,102,0.0,0.0,95,0.00,,,0.01,WeatherCatV1.11B39,2013-06-18 10:40:00,
2013-06-18 06:45:00,66.4,64.9,29.85,ESE,102,0.0,0.0,95,0.00,,,0.01,WeatherCatV1.11B39,2013-06-18 10:45:00,
2013-06-18 06:50:00,66.3,65.1,29.85,ESE,102,0.0,0.0,96,0.00,,,0.01,WeatherCatV1.11B39,2013-06-18 10:50:00,
2013-06-18 06:55:00,66.3,65.1,29.85,ESE,102,0.0,0.0,96,0.00,,,0.01,WeatherCatV1.11B39,2013-06-18 10:55:00,
2013-06-18 07:00:00,66.2,65.0,29.85,ESE,102,0.0,0.0,96,0.00,,,0.01,WeatherCatV1.11B39,2013-06-18 11:00:00,
2013-06-18 07:05:00,66.2,65.0,29.85,ESE,102,0.0,0.0,96,0.00,,,0.01,WeatherCatV1.11B39,2013-06-18 11:05:00,
2013-06-18 07:10:00,66.2,65.0,29.85,ESE,102,0.0,0.0,96,0.00,,,0.01,WeatherCatV1.11B39,2013-06-18 11:10:00,
2013-06-18 07:15:00,66.2,65.0,29.85,ESE,102,0.0,0.0,96,0.00,,,0.01,WeatherCatV1.11B39,2013-06-18 11:15:00,
2013-06-18 07:20:00,66.3,65.1,29.85,ESE,102,0.0,0.0,96,0.00,,,0.01,WeatherCatV1.11B39,2013-06-18 11:20:00,
2013-06-18 07:25:00,66.4,65.2,29.85,ESE,102,0.0,0.0,96,0.00,,,0.01,WeatherCatV1.11B39,2013-06-18 11:25:00,
2013-06-18 07:30:00,66.5,65.3,29.85,ESE,102,0.0,0.0,96,0.00,,,0.01,WeatherCatV1.11B39,2013-06-18 11:30:00,
2013-06-18 07:35:00,66.7,65.5,29.85,ESE,102,0.0,0.0,96,0.00,,,0.01,WeatherCatV1.11B39,2013-06-18 11:35:00,
2013-06-18 07:40:00,66.8,65.6,29.85,ESE,102,0.0,0.0,96,0.00,,,0.01,WeatherCatV1.11B39,2013-06-18 11:40:00,
2013-06-18 07:45:00,67.0,65.8,29.85,ESE,102,0.0,0.0,96,0.00,,,0.01,WeatherCatV1.11B39,2013-06-18 11:45:00,
2013-06-18 07:50:00,67.1,65.6,29.85,ESE,102,0.0,0.0,95,0.00,,,0.01,WeatherCatV1.11B39,2013-06-18 11:50:00,
2013-06-18 07:55:00,67.2,66.0,29.84,ESE,102,0.0,0.0,96,0.00,,,0.01,WeatherCatV1.11B39,2013-06-18 11:55:00,
2013-06-18 08:00:00,67.4,66.2,29.84,ESE,102,0.0,0.0,96,0.00,,,0.01,WeatherCatV1.11B39,2013-06-18 12:00:00,
2013-06-18 08:05:00,67.5,66.3,29.84,ESE,102,0.0,0.0,96,0.00,,,0.01,WeatherCatV1.11B39,2013-06-18 12:05:00,
2013-06-18 08:10:00,67.6,66.1,29.84,ESE,102,0.0,0.0,95,0.00,,,0.01,WeatherCatV1.11B39,2013-06-18 12:10:00,
2013-06-18 08:15:00,67.7,66.2,29.84,ESE,102,0.0,0.0,95,0.00,,,0.01,WeatherCatV1.11B39,2013-06-18 12:15:00,
2013-06-18 08:20:00,67.8,66.3,29.84,ESE,102,0.0,0.0,95,0.00,,,0.01,WeatherCatV1.11B39,2013-06-18 12:20:00,
2013-06-18 08:25:00,67.8,66.3,29.84,ESE,102,0.0,0.0,95,0.00,,,0.01,WeatherCatV1.11B39,2013-06-18 12:25:00,
2013-06-18 08:30:00,67.8,66.0,29.84,ESE,102,0.0,0.0,94,0.00,,,0.01,WeatherCatV1.11B39,2013-06-18 12:30:00,
2013-06-18 08:35:00,67.8,66.0,29.85,ESE,102,0.0,0.0,94,0.00,,,0.01,WeatherCatV1.11B39,2013-06-18 12:35:00,
2013-06-18 08:40:00,67.9,66.4,29.85,ESE,102,0.0,0.0,95,0.00,,,0.01,WeatherCatV1.11B39,2013-06-18 12:40:00,
2013-06-18 08:45:00,67.9,66.4,29.85,ESE,102,0.0,0.0,95,0.00,,,0.01,WeatherCatV1.11B39,2013-06-18 12:45:00,
2013-06-18 08:50:00,67.9,66.1,29.85,ESE,102,0.0,0.0,94,0.00,,,0.01,WeatherCatV1.11B39,2013-06-18 12:50:00,
2013-06-18 08:55:00,68.0,66.5,29.85,ESE,102,0.0,0.0,95,0.00,,,0.01,WeatherCatV1.11B39,2013-06-18 12:55:00,
2013-06-18 09:00:00,68.1,66.6,29.85,ESE,102,0.0,0.0,95,0.00,,,0.01,WeatherCatV1.11B39,2013-06-18 13:00:00,
2013-06-18 09:05:00,68.2,66.7,29.86,ESE,102,0.0,0.0,95,0.00,,,0.01,WeatherCatV1.11B39,2013-06-18 13:05:00,
2013-06-18 09:10:00,68.3,66.8,29.86,ESE,102,0.0,0.0,95,0.00,,,0.01,WeatherCatV1.11B39,2013-06-18 13:10:00,
2013-06-18 09:15:00,68.3,66.5,29.86,ESE,102,0.0,0.0,94,0.00,,,0.01,WeatherCatV1.11B39,2013-06-18 13:15:00,
2013-06-18 09:20:00,68.2,66.7,29.86,ESE,102,0.0,0.0,95,0.00,,,0.02,WeatherCatV1.11B39,2013-06-18 13:20:00,
2013-06-18 09:25:00,68.3,66.8,29.85,ESE,102,0.0,0.0,95,0.00,,,0.02,WeatherCatV1.11B39,2013-06-18 13:25:00,
2013-06-18 09:30:00,68.3,66.8,29.85,ESE,102,0.0,0.0,95,0.00,,,0.02,WeatherCatV1.11B39,2013-06-18 13:30:00,
2013-06-18 09:35:00,68.3,66.8,29.85,ESE,102,0.0,0.0,95,0.00,,,0.02,WeatherCatV1.11B39,2013-06-18 13:35:00,
2013-06-18 09:40:00,68.3,66.8,29.85,ESE,102,0.0,0.0,95,0.00,,,0.02,WeatherCatV1.11B39,2013-06-18 13:40:00,
2013-06-18 09:45:00,68.3,66.8,29.85,ESE,102,0.0,0.0,95,0.00,,,0.02,WeatherCatV1.11B39,2013-06-18 13:45:00,
2013-06-18 09:50:00,68.3,66.8,29.84,ESE,102,0.0,0.0,95,0.00,,,0.02,WeatherCatV1.11B39,2013-06-18 13:50:00,
2013-06-18 09:55:00,68.3,67.1,29.84,ESE,102,0.0,0.0,96,0.00,,,0.02,WeatherCatV1.11B39,2013-06-18 13:55:00,
2013-06-18 10:00:00,68.3,67.1,29.84,ESE,102,0.0,0.0,96,0.00,,,0.02,WeatherCatV1.11B39,2013-06-18 14:00:00,
2013-06-18 10:05:00,68.3,67.1,29.84,ESE,102,0.0,0.0,96,0.00,,,0.02,WeatherCatV1.11B39,2013-06-18 14:05:00,
2013-06-18 10:10:00,68.4,67.2,29.84,ESE,102,0.0,0.0,96,0.00,,,0.02,WeatherCatV1.11B39,2013-06-18 14:10:00,
2013-06-18 10:15:00,68.5,67.3,29.84,ESE,102,0.0,0.0,96,0.00,,,0.02,WeatherCatV1.11B39,2013-06-18 14:15:00,
2013-06-18 10:20:00,68.6,67.4,29.84,ESE,103,0.0,0.0,96,0.00,,,0.03,WeatherCatV1.11B39,2013-06-18 14:20:00,
2013-06-18 10:25:00,68.5,67.3,29.85,ESE,102,0.0,0.0,96,0.00,,,0.03,WeatherCatV1.11B39,2013-06-18 14:25:00,
2013-06-18 10:30:00,68.6,67.4,29.85,ESE,102,0.0,0.0,96,0.00,,,0.03,WeatherCatV1.11B39,2013-06-18 14:30:00,
2013-06-18 10:35:00,68.5,67.3,29.84,ESE,102,0.0,0.0,96,0.04,,,0.04,WeatherCatV1.11B39,2013-06-18 14:35:00,
2013-06-18 10:40:00,68.5,67.3,29.84,ESE,102,0.0,0.0,96,0.04,,,0.04,WeatherCatV1.11B39,2013-06-18 14:40:00,
2013-06-18 10:45:00,68.6,67.4,29.84,ESE,102,0.0,0.0,96,0.04,,,0.04,WeatherCatV1.11B39,2013-06-18 14:45:00,
2013-06-18 10:50:00,68.5,66.7,29.84,East,97,0.0,0.0,94,0.04,,,0.04,WeatherCatV1.11B39,2013-06-18 14:50:00,
2013-06-18 10:55:00,68.4,66.9,29.83,East,97,0.0,0.0,95,0.00,,,0.04,WeatherCatV1.11B39,2013-06-18 14:55:00,
2013-06-18 11:00:00,68.5,67.0,29.83,East,97,0.0,0.0,95,0.00,,,0.04,WeatherCatV1.11B39,2013-06-18 15:00:00,
2013-06-18 11:05:00,68.7,66.9,29.83,East,97,0.0,0.0,94,0.00,,,0.04,WeatherCatV1.11B39,2013-06-18 15:05:00,
2013-06-18 11:10:00,68.8,66.7,29.83,East,97,0.0,0.0,93,0.00,,,0.04,WeatherCatV1.11B39,2013-06-18 15:10:00,
2013-06-18 11:15:00,69.1,67.6,29.83,East,98,0.0,0.0,95,0.00,,,0.04,WeatherCatV1.11B39,2013-06-18 15:15:00,
2013-06-18 11:20:00,69.3,67.5,29.83,East,98,0.0,0.0,94,0.00,,,0.04,WeatherCatV1.11B39,2013-06-18 15:20:00,
2013-06-18 11:25:00,69.4,67.6,29.83,East,98,0.0,0.0,94,0.00,,,0.04,WeatherCatV1.11B39,2013-06-18 15:25:00,
2013-06-18 11:30:00,69.8,68.3,29.82,East,98,0.0,0.0,95,0.00,,,0.04,WeatherCatV1.11B39,2013-06-18 15:30:00,
2013-06-18 11:35:00,70.3,68.5,29.82,ESE,103,0.0,0.0,94,0.00,,,0.04,WeatherCatV1.11B39,2013-06-18 15:35:00,
2013-06-18 11:40:00,70.8,68.4,29.82,ESE,103,0.0,0.0,92,0.00,,,0.04,WeatherCatV1.11B39,2013-06-18 15:40:00,
2013-06-18 11:45:00,71.4,68.9,29.82,East,89,0.0,0.0,92,0.00,,,0.04,WeatherCatV1.11B39,2013-06-18 15:45:00,
2013-06-18 11:50:00,72.0,68.9,29.81,ESE,103,0.0,0.0,90,0.00,,,0.04,WeatherCatV1.11B39,2013-06-18 15:50:00,
2013-06-18 11:55:00,72.4,69.0,29.81,ESE,103,0.0,0.0,89,0.00,,,0.04,WeatherCatV1.11B39,2013-06-18 15:55:00,
2013-06-18 12:00:00,72.7,69.3,29.81,ESE,103,0.0,0.0,89,0.00,,,0.04,WeatherCatV1.11B39,2013-06-18 16:00:00,
2013-06-18 12:05:00,73.3,68.5,29.81,ESE,106,0.0,2.0,85,0.00,,,0.04,WeatherCatV1.11B39,2013-06-18 16:05:00,
2013-06-18 12:10:00,73.6,68.5,29.81,ESE,106,0.0,0.0,84,0.00,,,0.04,WeatherCatV1.11B39,2013-06-18 16:10:00,
2013-06-18 12:15:00,74.0,68.1,29.80,SE,136,0.0,3.0,82,0.00,,,0.04,WeatherCatV1.11B39,2013-06-18 16:15:00,
2013-06-18 12:20:00,74.7,69.2,29.80,SE,136,0.0,1.0,83,0.00,,,0.04,WeatherCatV1.11B39,2013-06-18 16:20:00,
2013-06-18 12:25:00,75.5,67.0,29.80,ESE,110,0.0,2.0,75,0.00,,,0.00,WeatherCatV1.11B39,2013-06-18 16:25:00,
2013-06-18 12:30:00,76.0,68.3,29.80,East,96,0.0,1.0,77,0.00,,,0.00,WeatherCatV1.11B39,2013-06-18 16:30:00,
2013-06-18 12:35:00,75.8,68.4,29.80,East,87,0.0,0.0,78,0.00,,,0.00,WeatherCatV1.11B39,2013-06-18 16:35:00,
2013-06-18 12:40:00,74.9,67.9,29.80,East,98,0.0,0.0,79,0.00,,,0.00,WeatherCatV1.11B39,2013-06-18 16:40:00,
2013-06-18 12:45:00,74.8,67.1,29.80,East,84,0.0,1.0,77,0.00,,,0.00,WeatherCatV1.11B39,2013-06-18 16:45:00,
2013-06-18 12:50:00,74.8,68.9,29.80,ENE,57,0.0,0.0,82,0.00,,,0.00,WeatherCatV1.11B39,2013-06-18 16:50:00,
2013-06-18 12:55:00,74.5,68.6,29.80,NE,51,0.0,0.0,82,0.00,,,0.00,WeatherCatV1.11B39,2013-06-18 16:55:00,
2013-06-18 13:00:00,74.2,68.7,29.80,NE,50,0.0,1.0,83,0.00,,,0.00,WeatherCatV1.11B39,2013-06-18 17:00:00,
2013-06-18 13:05:00,73.9,67.7,29.80,East,87,0.0,2.0,81,0.00,,,0.00,WeatherCatV1.11B39,2013-06-18 17:05:00,
2013-06-18 13:10:00,73.7,68.6,29.79,NE,53,0.0,0.0,84,0.00,,,0.00,WeatherCatV1.11B39,2013-06-18 17:10:00,
2013-06-18 13:15:00,74.4,68.9,29.80,East,94,0.0,0.0,83,0.00,,,0.00,WeatherCatV1.11B39,2013-06-18 17:15:00,
2013-06-18 13:20:00,75.0,69.1,29.79,East,97,0.0,0.0,82,0.00,,,0.00,WeatherCatV1.11B39,2013-06-18 17:20:00,
2013-06-18 13:25:00,75.6,68.2,29.79,ESE,114,0.0,0.0,78,0.00,,,0.00,WeatherCatV1.11B39,2013-06-18 17:25:00,
2013-06-18 13:30:00,75.8,68.8,29.79,ESE,113,0.0,0.0,79,0.00,,,0.00,WeatherCatV1.11B39,2013-06-18 17:30:00,
2013-06-18 13:35:00,75.9,67.8,29.78,ESE,122,0.0,1.0,76,0.00,,,0.00,WeatherCatV1.11B39,2013-06-18 17:35:00,
2013-06-18 13:40:00,76.0,69.0,29.78,SE,139,0.0,0.0,79,0.00,,,0.00,WeatherCatV1.11B39,2013-06-18 17:40:00,
2013-06-18 13:45:00,75.7,69.4,29.78,SE,127,0.0,0.0,81,0.00,,,0.00,WeatherCatV1.11B39,2013-06-18 17:45:00,
2013-06-18 13:50:00,75.5,68.1,29.78,ESE,116,0.0,0.0,78,0.00,,,0.00,WeatherCatV1.11B39,2013-06-18 17:50:00,
2013-06-18 13:55:00,75.3,67.6,29.78,ESE,110,0.0,0.0,77,0.00,,,0.00,WeatherCatV1.11B39,2013-06-18 17:55:00,
2013-06-18 14:00:00,75.2,67.9,29.78,ESE,110,0.0,0.0,78,0.00,,,0.00,WeatherCatV1.11B39,2013-06-18 18:00:00,
2013-06-18 14:05:00,75.0,68.8,29.77,ESE,110,0.0,0.0,81,0.00,,,0.00,WeatherCatV1.11B39,2013-06-18 18:05:00,
2013-06-18 14:10:00,74.8,67.5,29.77,ESE,110,0.0,0.0,78,0.00,,,0.00,WeatherCatV1.11B39,2013-06-18 18:10:00,
2013-06-18 14:15:00,75.3,68.3,29.78,ESE,110,0.0,1.0,79,0.00,,,0.00,WeatherCatV1.11B39,2013-06-18 18:15:00,
2013-06-18 14:20:00,76.1,68.0,29.78,ESE,110,0.0,0.0,76,0.00,,,0.00,WeatherCatV1.11B39,2013-06-18 18:20:00,
2013-06-18 14:25:00,76.6,68.5,29.78,ESE,110,0.0,0.0,76,0.00,,,0.00,WeatherCatV1.11B39,2013-06-18 18:25:00,
2013-06-18 14:30:00,76.5,69.1,29.78,ESE,110,0.0,0.0,78,0.00,,,0.00,WeatherCatV1.11B39,2013-06-18 18:30:00,
2013-06-18 14:35:00,76.3,68.5,29.78,ESE,110,0.0,0.0,77,0.00,,,0.00,WeatherCatV1.11B39,2013-06-18 18:35:00,
2013-06-18 14:40:00,75.9,68.5,29.78,ESE,110,0.0,0.0,78,0.00,,,0.00,WeatherCatV1.11B39,2013-06-18 18:40:00,
2013-06-18 14:45:00,76.1,68.7,29.78,ESE,110,0.0,0.0,78,0.00,,,0.00,WeatherCatV1.11B39,2013-06-18 18:45:00,
2013-06-18 14:50:00,76.0,68.3,29.78,ESE,110,0.0,0.0,77,0.00,,,0.00,WeatherCatV1.11B39,2013-06-18 18:50:00,
2013-06-18 14:55:00,76.0,69.4,29.78,ESE,107,0.0,0.0,80,0.00,,,0.00,WeatherCatV1.11B39,2013-06-18 18:55:00,
2013-06-18 15:00:00,74.2,68.3,29.79,ESE,112,1.0,9.0,82,0.00,,,0.00,WeatherCatV1.11B39,2013-06-18 19:00:00,
2013-06-18 15:05:00,72.0,67.6,29.79,ESE,103,2.0,2.0,86,0.00,,,0.00,WeatherCatV1.11B39,2013-06-18 19:05:00,
2013-06-18 15:10:00,70.6,66.9,29.80,SE,128,1.0,2.0,88,0.24,,,0.00,WeatherCatV1.11B39,2013-06-18 19:10:00,
2013-06-18 15:15:00,69.9,67.1,29.80,ESE,123,1.0,1.0,91,0.11,,,0.00,WeatherCatV1.11B39,2013-06-18 19:15:00,
2013-06-18 15:20:00,69.9,66.8,29.81,ESE,106,1.0,3.0,90,0.06,,,0.00,WeatherCatV1.11B39,2013-06-18 19:20:00,
2013-06-18 15:25:00,69.9,66.5,29.81,East,82,1.0,3.0,89,0.04,,,0.00,WeatherCatV1.11B39,2013-06-18 19:25:00,
2013-06-18 15:30:00,70.1,67.0,29.81,ENE,67,1.0,0.0,90,0.00,,,0.00,WeatherCatV1.11B39,2013-06-18 19:30:00,
2013-06-18 15:35:00,70.1,67.0,29.81,ENE,64,0.0,0.0,90,0.00,,,0.00,WeatherCatV1.11B39,2013-06-18 19:35:00,
2013-06-18 15:40:00,70.2,67.1,29.81,East,81,0.0,1.0,90,0.00,,,0.00,WeatherCatV1.11B39,2013-06-18 19:40:00,
2013-06-18 15:45:00,70.4,67.3,29.81,East,100,0.0,0.0,90,0.00,,,0.00,WeatherCatV1.11B39,2013-06-18 19:45:00,
2013-06-18 15:50:00,70.7,67.0,29.81,ESE,107,0.0,0.0,88,0.00,,,0.00,WeatherCatV1.11B39,2013-06-18 19:50:00,
2013-06-18 15:55:00,70.9,67.5,29.81,ESE,108,0.0,1.0,89,0.00,,,0.00,WeatherCatV1.11B39,2013-06-18 19:55:00,
2013-06-18 16:00:00,71.2,68.1,29.81,East,101,0.0,1.0,90,0.00,,,0.00,WeatherCatV1.11B39,2013-06-18 20:00:00,
2013-06-18 16:05:00,71.9,68.1,29.81,ESE,117,0.0,1.0,88,0.00,,,0.00,WeatherCatV1.11B39,2013-06-18 20:05:00,
2013-06-18 16:10:00,72.2,68.1,29.81,ESE,117,0.0,2.0,87,0.00,,,0.00,WeatherCatV1.11B39,2013-06-18 20:10:00,
2013-06-18 16:15:00,71.8,67.0,29.81,SE,128,1.0,1.0,85,0.00,,,0.00,WeatherCatV1.11B39,2013-06-18 20:15:00,
2013-06-18 16:20:00,71.6,67.8,29.81,SE,130,0.0,0.0,88,0.00,,,0.00,WeatherCatV1.11B39,2013-06-18 20:20:00,
2013-06-18 16:25:00,71.3,66.9,29.82,SE,143,0.0,0.0,86,0.00,,,0.00,WeatherCatV1.11B39,2013-06-18 20:25:00,
2013-06-18 16:30:00,71.1,67.0,29.82,ESE,123,0.0,0.0,87,0.00,,,0.00,WeatherCatV1.11B39,2013-06-18 20:30:00,
2013-06-18 16:35:00,70.5,66.8,29.82,ENE,70,0.0,0.0,88,0.00,,,0.00,WeatherCatV1.11B39,2013-06-18 20:35:00,
2013-06-18 16:40:00,70.3,66.6,29.82,ENE,74,0.0,0.0,88,0.00,,,0.00,WeatherCatV1.11B39,2013-06-18 20:40:00,
2013-06-18 16:45:00,70.0,66.6,29.82,East,99,0.0,1.0,89,0.00,,,0.00,WeatherCatV1.11B39,2013-06-18 20:45:00,
2013-06-18 16:50:00,69.7,66.6,29.82,ESE,109,0.0,0.0,90,0.00,,,0.00,WeatherCatV1.11B39,2013-06-18 20:50:00,
2013-06-18 16:55:00,69.6,66.8,29.81,ESE,116,0.0,1.0,91,0.00,,,0.00,WeatherCatV1.11B39,2013-06-18 20:55:00,
2013-06-18 17:00:00,69.3,66.9,29.81,ESE,117,0.0,0.0,92,0.00,,,0.00,WeatherCatV1.11B39,2013-06-18 21:00:00,
2013-06-18 17:05:00,69.1,66.4,29.81,NE,36,0.0,3.0,91,0.00,,,0.00,WeatherCatV1.11B39,2013-06-18 21:05:00,
2013-06-18 17:10:00,69.1,66.7,29.81,NNE,23,0.0,1.0,92,0.00,,,0.00,WeatherCatV1.11B39,2013-06-18 21:10:00,
2013-06-18 17:15:00,69.2,66.8,29.81,ENE,77,0.0,3.0,92,0.00,,,0.00,WeatherCatV1.11B39,2013-06-18 21:15:00,
2013-06-18 17:20:00,69.2,66.8,29.81,East,99,0.0,2.0,92,0.00,,,0.00,WeatherCatV1.11B39,2013-06-18 21:20:00,
2013-06-18 17:25:00,69.5,67.4,29.81,ESE,107,0.0,5.0,93,0.00,,,0.00,WeatherCatV1.11B39,2013-06-18 21:25:00,
2013-06-18 17:30:00,69.5,67.1,29.81,ESE,113,1.0,3.0,92,0.00,,,0.00,WeatherCatV1.11B39,2013-06-18 21:30:00,
2013-06-18 17:35:00,69.6,66.2,29.81,ENE,58,1.0,4.0,89,0.00,,,0.00,WeatherCatV1.11B39,2013-06-18 21:35:00,
2013-06-18 17:40:00,69.4,66.3,29.82,East,98,1.0,5.0,90,0.00,,,0.00,WeatherCatV1.11B39,2013-06-18 21:40:00,
2013-06-18 17:45:00,69.3,65.6,29.82,East,99,1.0,4.0,88,0.00,,,0.00,WeatherCatV1.11B39,2013-06-18 21:45:00,
2013-06-18 17:50:00,69.3,65.6,29.82,East,87,1.0,2.0,88,0.00,,,0.00,WeatherCatV1.11B39,2013-06-18 21:50:00,
2013-06-18 17:55:00,68.8,65.1,29.81,East,99,1.0,1.0,88,0.00,,,0.00,WeatherCatV1.11B39,2013-06-18 21:55:00,
2013-06-18 18:00:00,68.7,65.0,29.81,East,95,1.0,1.0,88,0.00,,,0.00,WeatherCatV1.11B39,2013-06-18 22:00:00,
2013-06-18 18:05:00,68.4,64.7,29.81,East,85,1.0,2.0,88,0.00,,,0.00,WeatherCatV1.11B39,2013-06-18 22:05:00,
2013-06-18 18:10:00,68.4,64.7,29.81,ESE,113,1.0,3.0,88,0.00,,,0.00,WeatherCatV1.11B39,2013-06-18 22:10:00,
2013-06-18 18:15:00,68.5,65.1,29.81,ESE,113,1.0,6.0,89,0.00,,,0.00,WeatherCatV1.11B39,2013-06-18 22:15:00,
2013-06-18 18:20:00,68.7,64.7,29.81,SE,144,1.0,4.0,87,0.00,,,0.00,WeatherCatV1.11B39,2013-06-18 22:20:00,
2013-06-18 18:25:00,68.8,65.1,29.81,East,97,1.0,2.0,88,0.00,,,0.00,WeatherCatV1.11B39,2013-06-18 22:25:00,
2013-06-18 18:30:00,68.9,64.9,29.81,ENE,70,1.0,4.0,87,0.00,,,0.00,WeatherCatV1.11B39,2013-06-18 22:30:00,
2013-06-18 18:35:00,68.8,64.4,29.81,ENE,68,1.0,4.0,86,0.00,,,0.00,WeatherCatV1.11B39,2013-06-18 22:35:00,
2013-06-18 18:40:00,68.8,64.8,29.81,ESE,113,1.0,0.0,87,0.00,,,0.00,WeatherCatV1.11B39,2013-06-18 22:40:00,
2013-06-18 18:45:00,68.6,64.2,29.81,SE,127,1.0,2.0,86,0.00,,,0.00,WeatherCatV1.11B39,2013-06-18 22:45:00,
2013-06-18 18:50:00,68.6,64.2,29.81,East,95,1.0,6.0,86,0.00,,,0.00,WeatherCatV1.11B39,2013-06-18 22:50:00,
2013-06-18 18:55:00,68.4,63.7,29.81,East,96,1.0,1.0,85,0.00,,,0.00,WeatherCatV1.11B39,2013-06-18 22:55:00,
2013-06-18 19:00:00,68.3,63.9,29.81,ESE,109,1.0,4.0,86,0.00,,,0.00,WeatherCatV1.11B39,2013-06-18 23:00:00,
2013-06-18 19:05:00,68.3,63.9,29.81,East,88,1.0,3.0,86,0.00,,,0.00,WeatherCatV1.11B39,2013-06-18 23:05:00,
2013-06-18 19:10:00,68.4,63.7,29.81,ENE,64,1.0,2.0,85,0.00,,,0.00,WeatherCatV1.11B39,2013-06-18 23:10:00,
2013-06-18 19:15:00,68.3,63.6,29.82,East,100,0.0,1.0,85,0.00,,,0.00,WeatherCatV1.11B39,2013-06-18 23:15:00,
2013-06-18 19:20:00,68.4,63.7,29.82,East,91,0.0,2.0,85,0.00,,,0.00,WeatherCatV1.11B39,2013-06-18 23:20:00,
2013-06-18 19:25:00,68.6,63.6,29.83,ENE,67,1.0,6.0,84,0.00,,,0.00,WeatherCatV1.11B39,2013-06-18 23:25:00,
2013-06-18 19:30:00,68.6,63.6,29.83,ENE,66,1.0,3.0,84,0.00,,,0.00,WeatherCatV1.11B39,2013-06-18 23:30:00,
2013-06-18 19:35:00,68.5,63.5,29.82,East,95,1.0,4.0,84,0.00,,,0.00,WeatherCatV1.11B39,2013-06-18 23:35:00,
2013-06-18 19:40:00,68.3,63.3,29.83,SSE,165,0.0,0.0,84,0.00,,,0.00,WeatherCatV1.11B39,2013-06-18 23:40:00,
2013-06-18 19:45:00,68.1,63.1,29.82,SSW,198,1.0,3.0,84,0.00,,,0.00,WeatherCatV1.11B39,2013-06-18 23:45:00,
2013-06-18 19:50:00,68.0,63.0,29.83,SE,127,1.0,0.0,84,0.00,,,0.00,WeatherCatV1.11B39,2013-06-18 23:50:00,
2013-06-18 19:55:00,67.8,62.8,29.83,East,98,0.0,1.0,84,0.00,,,0.00,WeatherCatV1.11B39,2013-06-18 23:55:00,
2013-06-18 20:00:00,67.4,62.4,29.84,ENE,73,1.0,1.0,84,0.00,,,0.00,WeatherCatV1.11B39,2013-06-19 00:00:00,
2013-06-18 20:05:00,67.0,62.3,29.83,ENE,66,0.0,0.0,85,0.00,,,0.00,WeatherCatV1.11B39,2013-06-19 00:05:00,
2013-06-18 20:10:00,66.9,62.2,29.83,ENE,59,0.0,0.0,85,0.00,,,0.00,WeatherCatV1.11B39,2013-06-19 00:10:00,
2013-06-18 20:15:00,66.7,62.4,29.84,ESE,106,0.0,1.0,86,0.00,,,0.00,WeatherCatV1.11B39,2013-06-19 00:15:00,
2013-06-18 20:20:00,66.5,62.5,29.84,ENE,76,0.0,0.0,87,0.00,,,0.00,WeatherCatV1.11B39,2013-06-19 00:20:00,
2013-06-18 20:25:00,66.3,62.3,29.84,East,79,0.0,1.0,87,0.00,,,0.00,WeatherCatV1.11B39,2013-06-19 00:25:00,
2013-06-18 20:30:00,66.2,62.2,29.84,East,88,0.0,1.0,87,0.00,,,0.00,WeatherCatV1.11B39,2013-06-19 00:30:00,
2013-06-18 20:35:00,66.2,62.2,29.85,ESE,114,0.0,0.0,87,0.00,,,0.00,WeatherCatV1.11B39,2013-06-19 00:35:00,
2013-06-18 20:40:00,66.0,62.0,29.85,SE,146,0.0,0.0,87,0.00,,,0.00,WeatherCatV1.11B39,2013-06-19 00:40:00,
2013-06-18 20:45:00,65.6,61.9,29.85,ESE,104,0.0,0.0,88,0.00,,,0.00,WeatherCatV1.11B39,2013-06-19 00:45:00,
2013-06-18 20:50:00,65.4,61.7,29.85,ENE,74,0.0,0.0,88,0.00,,,0.00,WeatherCatV1.11B39,2013-06-19 00:50:00,
2013-06-18 20:55:00,65.1,61.8,29.85,ENE,64,0.0,0.0,89,0.00,,,0.00,WeatherCatV1.11B39,2013-06-19 00:55:00,
2013-06-18 21:00:00,64.9,61.9,29.85,ENE,61,0.0,0.0,90,0.00,,,0.00,WeatherCatV1.11B39,2013-06-19 01:00:00,
2013-06-18 21:05:00,64.7,61.7,29.85,ENE,67,0.0,0.0,90,0.00,,,0.00,WeatherCatV1.11B39,2013-06-19 01:05:00,
2013-06-18 21:10:00,64.5,61.5,29.86,ENE,75,0.0,0.0,90,0.00,,,0.00,WeatherCatV1.11B39,2013-06-19 01:10:00,
2013-06-18 21:15:00,64.3,61.6,29.86,East,101,0.0,0.0,91,0.00,,,0.00,WeatherCatV1.11B39,2013-06-19 01:15:00,
2013-06-18 21:20:00,64.3,61.6,29.86,ESE,107,0.0,0.0,91,0.00,,,0.00,WeatherCatV1.11B39,2013-06-19 01:20:00,
2013-06-18 21:25:00,64.3,61.6,29.87,ESE,107,0.0,0.0,91,0.00,,,0.00,WeatherCatV1.11B39,2013-06-19 01:25:00,
2013-06-18 21:30:00,64.3,61.6,29.87,East,92,0.0,0.0,91,0.00,,,0.00,WeatherCatV1.11B39,2013-06-19 01:30:00,
2013-06-18 21:35:00,64.3,61.6,29.87,ENE,76,0.0,0.0,91,0.00,,,0.00,WeatherCatV1.11B39,2013-06-19 01:35:00,
2013-06-18 21:40:00,64.4,61.7,29.87,ENE,78,0.0,0.0,91,0.00,,,0.00,WeatherCatV1.11B39,2013-06-19 01:40:00,
2013-06-18 21:45:00,64.4,61.7,29.87,East,87,0.0,0.0,91,0.00,,,0.00,WeatherCatV1.11B39,2013-06-19 01:45:00,
2013-06-18 21:50:00,64.3,61.6,29.88,East,88,0.0,0.0,91,0.00,,,0.00,WeatherCatV1.11B39,2013-06-19 01:50:00,
2013-06-18 21:55:00,64.1,61.4,29.88,East,89,0.0,0.0,91,0.00,,,0.00,WeatherCatV1.11B39,2013-06-19 01:55:00,
2013-06-18 22:00:00,64.0,61.6,29.88,East,96,0.0,0.0,92,0.00,,,0.00,WeatherCatV1.11B39,2013-06-19 02:00:00,
2013-06-18 22:05:00,64.0,61.6,29.89,ENE,78,0.0,0.0,92,0.00,,,0.00,WeatherCatV1.11B39,2013-06-19 02:05:00,
2013-06-18 22:10:00,63.9,61.5,29.89,ENE,73,0.0,0.0,92,0.00,,,0.00,WeatherCatV1.11B39,2013-06-19 02:10:00,
2013-06-18 22:15:00,63.9,61.5,29.89,ENE,72,0.0,0.0,92,0.00,,,0.00,WeatherCatV1.11B39,2013-06-19 02:15:00,
2013-06-18 22:20:00,63.7,61.3,29.89,ENE,72,0.0,0.0,92,0.00,,,0.00,WeatherCatV1.11B39,2013-06-19 02:20:00,
2013-06-18 22:25:00,63.5,61.1,29.89,East,95,0.0,0.0,92,0.00,,,0.00,WeatherCatV1.11B39,2013-06-19 02:25:00,
2013-06-18 22:30:00,63.4,61.3,29.89,East,98,0.0,0.0,93,0.00,,,0.00,WeatherCatV1.11B39,2013-06-19 02:30:00,
2013-06-18 22:35:00,63.3,61.2,29.90,East,98,0.0,0.0,93,0.00,,,0.00,WeatherCatV1.11B39,2013-06-19 02:35:00,
2013-06-18 22:40:00,63.1,61.0,29.90,East,98,0.0,0.0,93,0.00,,,0.00,WeatherCatV1.11B39,2013-06-19 02:40:00,
2013-06-18 22:45:00,63.0,61.2,29.90,East,98,0.0,0.0,94,0.00,,,0.00,WeatherCatV1.11B39,2013-06-19 02:45:00,
2013-06-18 22:50:00,63.0,61.2,29.91,East,98,0.0,0.0,94,0.00,,,0.00,WeatherCatV1.11B39,2013-06-19 02:50:00,
2013-06-18 22:55:00,62.8,61.0,29.91,East,98,0.0,0.0,94,0.00,,,0.00,WeatherCatV1.11B39,2013-06-19 02:55:00,
2013-06-18 23:00:00,62.7,61.2,29.91,East,98,0.0,0.0,95,0.00,,,0.00,WeatherCatV1.11B39,2013-06-19 03:00:00,
2013-06-18 23:05:00,62.7,61.2,29.91,East,98,0.0,0.0,95,0.00,,,0.00,WeatherCatV1.11B39,2013-06-19 03:05:00,
2013-06-18 23:10:00,62.6,61.1,29.92,East,98,0.0,0.0,95,0.00,,,0.00,WeatherCatV1.11B39,2013-06-19 03:10:00,
2013-06-18 23:15:00,62.6,61.1,29.92,East,98,0.0,0.0,95,0.00,,,0.00,WeatherCatV1.11B39,2013-06-19 03:15:00,
2013-06-18 23:20:00,62.6,61.1,29.91,East,99,0.0,0.0,95,0.00,,,0.00,WeatherCatV1.11B39,2013-06-19 03:20:00,
2013-06-18 23:25:00,62.6,61.1,29.92,North,358,0.0,0.0,95,0.00,,,0.00,WeatherCatV1.11B39,2013-06-19 03:25:00,
2013-06-18 23:30:00,62.6,60.8,29.92,North,356,0.0,0.0,94,0.00,,,0.00,WeatherCatV1.11B39,2013-06-19 03:30:00,
2013-06-18 23:35:00,62.5,60.7,29.92,NNE,21,0.0,0.0,94,0.00,,,0.00,WeatherCatV1.11B39,2013-06-19 03:35:00,
2013-06-18 23:40:00,62.5,60.7,29.92,NE,53,0.0,0.0,94,0.00,,,0.00,WeatherCatV1.11B39,2013-06-19 03:40:00,
2013-06-18 23:45:00,62.5,60.7,29.93,ENE,70,0.0,0.0,94,0.00,,,0.00,WeatherCatV1.11B39,2013-06-19 03:45:00,
2013-06-18 23:50:00,62.4,60.6,29.93,ENE,75,0.0,0.0,94,0.00,,,0.00,WeatherCatV1.11B39,2013-06-19 03:50:00,
2013-06-18 23:55:00,62.6,60.8,29.93,East,91,0.0,0.0,94,0.00,,,0.00,WeatherCatV1.11B39,2013-06-19 03:55:00,